• In Romania
  • List of Countries
  • For 7 days
  • Water Temperature
  • Satellite Maps
  • Weather Map
  • Weather Widgets
  • user-avatar
    Login

    Hourly Weather La Rioja

    Today, 30 April, Sunday

    Time Temperature Precipitation Wind Pressure Humidity
    00:00 +19°C° 0 mm 1 mps 718 mmHg 57%
    01:00 +18°C° 0 mm 1 mps 718 mmHg 57%
    02:00 +18°C° 0 mm 1 mps 717 mmHg 58%
    03:00 +16°C° 0 mm 1 mps 717 mmHg 59%
    04:00 +16°C° 0 mm 1 mps 717 mmHg 59%
    05:00 +15°C° 0 mm 1 mps 717 mmHg 60%
    06:00 +16°C° 0 mm 1 mps 717 mmHg 57%
    07:00 +18°C° 0 mm 1 mps 717 mmHg 54%
    08:00 +18°C° 0 mm 1 mps 717 mmHg 51%
    09:00 +21°C° 0 mm 1 mps 718 mmHg 44%
    10:00 +23°C° 0 mm 2 mps 718 mmHg 37%
    11:00 +25°C° 0 mm 2 mps 718 mmHg 30%
    12:00 +26°C° 0 mm 2 mps 717 mmHg 28%
    13:00 +27°C° 0 mm 2 mps 717 mmHg 26%
    14:00 +28°C° 0 mm 2 mps 716 mmHg 25%
    15:00 +28°C° 0 mm 2 mps 716 mmHg 27%
    16:00 +27°C° 0 mm 2 mps 716 mmHg 28%
    17:00 +27°C° 0 mm 2 mps 715 mmHg 30%
    18:00 +25°C° 0 mm 2 mps 716 mmHg 36%
    19:00 +23°C° 0 mm 1 mps 716 mmHg 43%
    20:00 +21°C° 0 mm 1 mps 716 mmHg 49%
    21:00 +20°C° 0 mm 1 mps 716 mmHg 49%
    22:00 +20°C° 0 mm 1 mps 716 mmHg 50%
    23:00 +19°C° 0 mm 1 mps 717 mmHg 51%

    Tomorrow, 1 May, Monday

    Time Temperature Precipitation Wind Pressure Humidity
    00:00 +19°C° 0 mm 1 mps 716 mmHg 52%
    01:00 +18°C° 0 mm 1 mps 716 mmHg 52%
    02:00 +18°C° 0 mm 1 mps 716 mmHg 53%
    03:00 +16°C° 0 mm 1 mps 715 mmHg 53%
    04:00 +16°C° 0 mm 1 mps 715 mmHg 53%
    05:00 +16°C° 0 mm 1 mps 715 mmHg 54%
    06:00 +16°C° 0 mm 1 mps 715 mmHg 51%
    07:00 +18°C° 0 mm 1 mps 715 mmHg 49%
    08:00 +18°C° 0 mm 1 mps 716 mmHg 47%
    09:00 +20°C° 0 mm 2 mps 716 mmHg 41%
    10:00 +23°C° 0 mm 2 mps 716 mmHg 35%
    11:00 +26°C° 0 mm 2 mps 716 mmHg 29%
    12:00 +27°C° 0 mm 2 mps 715 mmHg 27%
    13:00 +28°C° 0 mm 2 mps 714 mmHg 25%
    14:00 +29°C° 0 mm 2 mps 714 mmHg 23%
    15:00 +28°C° 0 mm 2 mps 713 mmHg 26%
    16:00 +28°C° 0 mm 2 mps 713 mmHg 28%
    17:00 +27°C° 0 mm 2 mps 713 mmHg 30%
    18:00 +25°C° 0 mm 2 mps 713 mmHg 36%
    19:00 +23°C° 0 mm 2 mps 713 mmHg 41%
    20:00 +20°C° 0 mm 2 mps 713 mmHg 47%
    21:00 +21°C° 0 mm 1 mps 713 mmHg 50%
    22:00 +20°C° 0 mm 1 mps 713 mmHg 52%
    23:00 +20°C° 0 mm 1 mps 713 mmHg 55%

    Day after tomorrow, 2 May, Tuesday

    Time Temperature Precipitation Wind Pressure Humidity
    00:00 +19°C° 0 mm 1 mps 712 mmHg 57%
    01:00 +19°C° 0 mm 1 mps 712 mmHg 58%
    02:00 +18°C° 0 mm 1 mps 712 mmHg 60%
    03:00 +18°C° 0 mm 1 mps 712 mmHg 61%
    04:00 +17°C° 0 mm 2 mps 711 mmHg 62%
    05:00 +16°C° 0 mm 2 mps 711 mmHg 63%
    06:00 +17°C° 0 mm 2 mps 711 mmHg 62%
    07:00 +18°C° 0 mm 2 mps 712 mmHg 61%
    08:00 +18°C° 0 mm 2 mps 712 mmHg 61%
    09:00 +20°C° 0 mm 2 mps 712 mmHg 56%
    10:00 +23°C° 0 mm 2 mps 713 mmHg 51%
    11:00 +26°C° 0 mm 2 mps 713 mmHg 46%
    12:00 +27°C° 0 mm 2 mps 712 mmHg 43%
    13:00 +27°C° 0 mm 3 mps 712 mmHg 40%
    14:00 +28°C° 0 mm 3 mps 711 mmHg 38%
    15:00 +28°C° 0 mm 3 mps 711 mmHg 39%
    16:00 +28°C° 0 mm 2 mps 711 mmHg 40%
    17:00 +27°C° 0 mm 2 mps 711 mmHg 42%
    18:00 +25°C° 0 mm 2 mps 712 mmHg 50%
    19:00 +24°C° 0 mm 3 mps 713 mmHg 58%
    20:00 +21°C° 0 mm 3 mps 714 mmHg 66%
    21:00 +21°C° 0 mm 3 mps 715 mmHg 69%
    22:00 +20°C° 0 mm 2 mps 715 mmHg 73%
    23:00 +20°C° 0 mm 2 mps 716 mmHg 77%

    3 May, Wednesday

    Time Temperature Precipitation Wind Pressure Humidity
    00:00 +19°C° 0 mm 2 mps 717 mmHg 77%
    01:00 +19°C° 0 mm 2 mps 717 mmHg 77%
    02:00 +19°C° 0 mm 2 mps 717 mmHg 77%
    03:00 +19°C° 0 mm 2 mps 717 mmHg 77%
    04:00 +18°C° 0 mm 2 mps 717 mmHg 78%
    05:00 +18°C° 0 mm 2 mps 717 mmHg 78%
    06:00 +18°C° 0 mm 2 mps 718 mmHg 75%
    07:00 +20°C° 0 mm 1 mps 718 mmHg 72%
    08:00 +21°C° 0 mm 1 mps 719 mmHg 68%
    09:00 +23°C° 0 mm 2 mps 719 mmHg 62%
    10:00 +24°C° 0 mm 2 mps 719 mmHg 55%
    11:00 +26°C° 0 mm 2 mps 719 mmHg 49%
    12:00 +27°C° 0 mm 2 mps 719 mmHg 46%
    13:00 +27°C° 0 mm 2 mps 718 mmHg 43%
    14:00 +28°C° 0 mm 2 mps 717 mmHg 41%
    15:00 +28°C° 0 mm 2 mps 716 mmHg 42%
    16:00 +27°C° 0 mm 2 mps 716 mmHg 44%
    17:00 +27°C° 0 mm 2 mps 716 mmHg 45%
    18:00 +25°C° 0 mm 2 mps 716 mmHg 52%
    19:00 +24°C° 0 mm 2 mps 716 mmHg 58%
    20:00 +22°C° 0 mm 1 mps 716 mmHg 64%
    21:00 +22°C° 0 mm 1 mps 716 mmHg 67%
    22:00 +21°C° 0 mm 1 mps 715 mmHg 69%
    23:00 +21°C° 0 mm 1 mps 715 mmHg 71%

    4 May, Thursday

    Time Temperature Precipitation Wind Pressure Humidity
    00:00 +21°C° 0 mm 1 mps 715 mmHg 73%
    01:00 +20°C° 0 mm 1 mps 714 mmHg 75%
    02:00 +20°C° 0 mm 1 mps 713 mmHg 77%
    03:00 +19°C° 0 mm 1 mps 713 mmHg 78%
    04:00 +18°C° 0 mm 2 mps 713 mmHg 79%
    05:00 +18°C° 0 mm 2 mps 712 mmHg 80%
    06:00 +18°C° 0 mm 2 mps 712 mmHg 77%
    07:00 +20°C° 0 mm 1 mps 712 mmHg 75%
    08:00 +20°C° 0 mm 1 mps 713 mmHg 72%
    09:00 +21°C° 0 mm 2 mps 712 mmHg 63%
    10:00 +24°C° 0 mm 2 mps 712 mmHg 54%
    11:00 +26°C° 0 mm 2 mps 712 mmHg 45%
    12:00 +27°C° 0 mm 2 mps 711 mmHg 41%
    13:00 +29°C° 0 mm 2 mps 711 mmHg 37%
    14:00 +30°C° 0 mm 2 mps 710 mmHg 34%
    15:00 +29°C° 0 mm 2 mps 710 mmHg 36%
    16:00 +29°C° 0 mm 2 mps 709 mmHg 37%
    17:00 +29°C° 0 mm 2 mps 709 mmHg 39%
    18:00 +27°C° 0 mm 2 mps 710 mmHg 46%
    19:00 +25°C° 0 mm 2 mps 710 mmHg 53%
    20:00 +23°C° 0 mm 1 mps 710 mmHg 60%
    21:00 +22°C° 0 mm 1 mps 711 mmHg 64%
    22:00 +22°C° 0 mm 1 mps 711 mmHg 69%
    23:00 +21°C° 0 mm 1 mps 711 mmHg 73%

    5 May, Friday

    Time Temperature Precipitation Wind Pressure Humidity
    00:00 +21°C° 0 mm 1 mps 711 mmHg 74%
    01:00 +21°C° 0 mm 1 mps 711 mmHg 76%
    02:00 +20°C° 0 mm 1 mps 711 mmHg 77%
    03:00 +20°C° 0 mm 1 mps 710 mmHg 77%
    04:00 +20°C° 0 mm 1 mps 710 mmHg 76%
    05:00 +19°C° 0 mm 1 mps 710 mmHg 76%
    06:00 +20°C° 0 mm 1 mps 710 mmHg 73%
    07:00 +21°C° 0 mm 1 mps 711 mmHg 69%
    08:00 +21°C° 0 mm 1 mps 711 mmHg 66%
    09:00 +23°C° 0 mm 2 mps 711 mmHg 58%
    10:00 +26°C° 0 mm 2 mps 711 mmHg 49%
    11:00 +28°C° 0 mm 2 mps 711 mmHg 41%
    12:00 +29°C° 0 mm 2 mps 710 mmHg 37%
    13:00 +30°C° 0 mm 2 mps 709 mmHg 33%
    14:00 +31°C° 0 mm 2 mps 708 mmHg 29%
    15:00 +31°C° 0 mm 2 mps 708 mmHg 32%
    16:00 +30°C° 0 mm 2 mps 708 mmHg 34%
    17:00 +29°C° 0 mm 2 mps 708 mmHg 37%
    18:00 +28°C° 0 mm 2 mps 708 mmHg 43%
    19:00 +26°C° 0 mm 2 mps 708 mmHg 48%
    20:00 +24°C° 0 mm 2 mps 708 mmHg 53%
    21:00 +23°C° 0 mm 1 mps 708 mmHg 57%
    22:00 +23°C° 0 mm 1 mps 708 mmHg 60%
    23:00 +22°C° 0 mm 1 mps 708 mmHg 63%
    Show more